Time,TemperatureF,DewpointF,PressureIn,WindDirection,WindDirectionDegrees,WindSpeedMPH,WindSpeedGustMPH,Humidity,HourlyPrecipIn,Conditions,Clouds,dailyrainin,SoftwareType,DateUTC
2013-08-09 00:01:00,69.5,66.4,29.82,SSW,203,0.0,0.7,90,0.00,,,0.00,WUHU216HW,2013-08-09 04:01:00,
2013-08-09 00:06:00,69.5,66.4,29.82,SSW,203,0.0,0.7,90,0.00,,,0.00,WUHU216HW,2013-08-09 04:06:00,
2013-08-09 00:11:00,69.3,66.2,29.82,SSW,203,0.4,0.9,90,0.00,,,0.00,WUHU216HW,2013-08-09 04:11:00,
2013-08-09 00:16:00,69.1,66.1,29.82,SSW,203,0.0,0.9,90,0.00,,,0.00,WUHU216HW,2013-08-09 04:16:00,
2013-08-09 00:21:00,68.9,65.9,29.82,SSW,203,0.4,0.7,90,0.00,,,0.00,WUHU216HW,2013-08-09 04:21:00,
2013-08-09 00:26:00,68.8,65.7,29.82,SSW,203,0.0,0.7,90,0.00,,,0.00,WUHU216HW,2013-08-09 04:26:00,
2013-08-09 00:31:00,68.8,65.7,29.82,SSW,203,0.0,0.4,90,0.00,,,0.00,WUHU216HW,2013-08-09 04:31:00,
2013-08-09 00:36:00,68.6,65.5,29.82,SSW,203,0.4,0.4,90,0.00,,,0.00,WUHU216HW,2013-08-09 04:36:00,
2013-08-09 00:41:00,68.4,65.3,29.82,SSW,203,0.0,0.4,90,0.00,,,0.00,WUHU216HW,2013-08-09 04:41:00,
2013-08-09 00:46:00,68.4,65.3,29.82,South,180,0.0,0.4,90,0.00,,,0.00,WUHU216HW,2013-08-09 04:46:00,
2013-08-09 00:51:00,68.4,65.3,29.82,South,180,0.0,0.4,90,0.00,,,0.00,WUHU216HW,2013-08-09 04:51:00,
2013-08-09 00:56:00,68.4,65.3,29.82,South,180,0.0,0.4,90,0.00,,,0.00,WUHU216HW,2013-08-09 04:56:00,
2013-08-09 01:01:00,68.4,65.3,29.82,South,180,0.0,0.4,90,0.00,,,0.00,WUHU216HW,2013-08-09 05:01:00,
2013-08-09 01:06:00,68.4,65.3,29.82,South,180,0.0,0.7,90,0.00,,,0.00,WUHU216HW,2013-08-09 05:06:00,
2013-08-09 01:11:00,68.6,65.5,29.82,South,180,0.0,0.7,90,0.00,,,0.00,WUHU216HW,2013-08-09 05:11:00,
2013-08-09 01:16:00,68.4,65.3,29.82,South,180,0.9,0.9,90,0.00,,,0.00,WUHU216HW,2013-08-09 05:16:00,
2013-08-09 01:21:00,68.2,65.2,29.82,South,180,0.2,0.9,90,0.00,,,0.00,WUHU216HW,2013-08-09 05:21:00,
2013-08-09 01:26:00,68.0,65.0,29.83,South,180,0.2,0.9,90,0.00,,,0.00,WUHU216HW,2013-08-09 05:26:00,
2013-08-09 01:31:00,68.0,65.0,29.82,South,180,0.0,0.9,90,0.00,,,0.00,WUHU216HW,2013-08-09 05:31:00,
2013-08-09 01:36:00,67.9,65.1,29.82,South,180,0.0,0.9,91,0.00,,,0.00,WUHU216HW,2013-08-09 05:36:00,
2013-08-09 01:41:00,67.9,65.1,29.82,South,180,0.0,0.0,91,0.00,,,0.00,WUHU216HW,2013-08-09 05:41:00,
2013-08-09 01:46:00,67.9,65.1,29.82,South,180,0.0,0.0,91,0.00,,,0.00,WUHU216HW,2013-08-09 05:46:00,
2013-08-09 01:51:00,67.7,64.9,29.82,South,180,0.0,0.0,91,0.00,,,0.00,WUHU216HW,2013-08-09 05:51:00,
2013-08-09 01:56:00,67.7,64.9,29.82,South,180,0.0,0.0,91,0.00,,,0.00,WUHU216HW,2013-08-09 05:56:00,
2013-08-09 02:01:00,67.7,64.9,29.81,South,180,0.0,0.0,91,0.00,,,0.00,WUHU216HW,2013-08-09 06:01:00,
2013-08-09 02:06:00,68.0,65.3,29.81,South,180,0.0,0.0,91,0.00,,,0.00,WUHU216HW,2013-08-09 06:06:00,
2013-08-09 02:11:00,68.0,65.3,29.82,SSW,203,0.0,0.0,91,0.00,,,0.00,WUHU216HW,2013-08-09 06:11:00,
2013-08-09 02:17:00,68.4,65.6,29.81,SSW,203,0.0,0.0,91,0.00,,,0.00,WUHU216HW,2013-08-09 06:17:00,
2013-08-09 02:22:00,68.4,65.6,29.82,South,180,0.0,0.0,91,0.00,,,0.00,WUHU216HW,2013-08-09 06:22:00,
2013-08-09 02:27:00,68.4,65.6,29.82,South,180,0.0,1.1,91,0.00,,,0.00,WUHU216HW,2013-08-09 06:27:00,
2013-08-09 02:32:00,68.4,65.6,29.82,South,180,0.4,1.1,91,0.00,,,0.00,WUHU216HW,2013-08-09 06:32:00,
2013-08-09 02:37:00,68.4,65.6,29.82,South,180,0.0,0.4,91,0.00,,,0.00,WUHU216HW,2013-08-09 06:37:00,
2013-08-09 02:41:00,68.4,65.6,29.82,South,180,0.7,0.7,91,0.00,,,0.00,WUHU216HW,2013-08-09 06:41:00,
2013-08-09 02:47:00,68.4,65.6,29.82,South,180,0.0,0.7,91,0.00,,,0.00,WUHU216HW,2013-08-09 06:47:00,
2013-08-09 02:52:00,68.4,65.6,29.82,South,180,0.0,0.7,91,0.00,,,0.00,WUHU216HW,2013-08-09 06:52:00,
2013-08-09 02:56:00,68.4,65.6,29.82,South,180,0.0,0.7,91,0.00,,,0.00,WUHU216HW,2013-08-09 06:56:00,
2013-08-09 03:01:00,68.6,65.8,29.82,South,180,0.0,0.4,91,0.00,,,0.00,WUHU216HW,2013-08-09 07:01:00,
2013-08-09 03:06:00,68.6,65.8,29.82,South,180,0.0,0.0,91,0.00,,,0.00,WUHU216HW,2013-08-09 07:06:00,
2013-08-09 03:07:00,68.6,65.8,29.82,South,180,0.0,0.0,91,0.00,,,0.00,WUHU216HW,2013-08-09 07:07:00,
2013-08-09 03:12:00,68.8,66.0,29.82,South,180,0.0,0.0,91,0.00,,,0.00,WUHU216HW,2013-08-09 07:12:00,
2013-08-09 03:17:00,68.8,66.0,29.82,South,180,0.2,0.4,91,0.00,,,0.00,WUHU216HW,2013-08-09 07:17:00,
2013-08-09 03:22:00,68.9,66.2,29.82,South,180,0.0,0.4,91,0.00,,,0.00,WUHU216HW,2013-08-09 07:22:00,
2013-08-09 03:27:00,69.1,66.3,29.82,South,180,0.0,0.0,91,0.00,,,0.00,WUHU216HW,2013-08-09 07:27:00,
2013-08-09 03:32:00,69.1,66.3,29.82,South,180,0.0,0.0,91,0.00,,,0.00,WUHU216HW,2013-08-09 07:32:00,
2013-08-09 03:37:00,69.1,66.3,29.82,South,180,0.0,0.0,91,0.00,,,0.00,WUHU216HW,2013-08-09 07:37:00,
2013-08-09 03:42:00,68.9,66.2,29.82,South,180,0.0,0.2,91,0.00,,,0.00,WUHU216HW,2013-08-09 07:42:00,
2013-08-09 03:47:00,68.9,66.2,29.82,South,180,0.2,0.2,91,0.00,,,0.00,WUHU216HW,2013-08-09 07:47:00,
2013-08-09 03:52:00,68.9,66.2,29.82,South,180,0.0,0.2,91,0.00,,,0.00,WUHU216HW,2013-08-09 07:52:00,
2013-08-09 03:57:00,68.9,66.2,29.82,South,180,0.0,0.2,91,0.00,,,0.00,WUHU216HW,2013-08-09 07:57:00,
2013-08-09 04:02:00,68.9,66.2,29.82,North,0,0.9,0.9,91,0.00,,,0.00,WUHU216HW,2013-08-09 08:02:00,
2013-08-09 04:07:00,68.9,66.2,29.83,NNE,23,0.0,1.1,91,0.00,,,0.00,WUHU216HW,2013-08-09 08:07:00,
2013-08-09 04:12:00,68.9,66.2,29.83,NNE,23,0.0,1.1,91,0.00,,,0.00,WUHU216HW,2013-08-09 08:12:00,
2013-08-09 04:17:00,68.9,66.2,29.83,NNE,23,0.0,0.0,91,0.00,,,0.00,WUHU216HW,2013-08-09 08:17:00,
2013-08-09 04:22:00,68.9,66.2,29.83,NNE,23,0.0,0.0,91,0.00,,,0.00,WUHU216HW,2013-08-09 08:22:00,
2013-08-09 04:27:00,69.1,66.3,29.83,NNE,23,0.0,0.0,91,0.00,,,0.00,WUHU216HW,2013-08-09 08:27:00,
2013-08-09 04:32:00,69.1,66.3,29.83,NNE,23,0.0,0.0,91,0.00,,,0.00,WUHU216HW,2013-08-09 08:32:00,
2013-08-09 04:37:00,69.1,66.3,29.83,NNE,23,0.0,0.0,91,0.00,,,0.00,WUHU216HW,2013-08-09 08:37:00,
2013-08-09 04:42:00,69.3,66.5,29.83,NNE,23,0.0,0.0,91,0.00,,,0.00,WUHU216HW,2013-08-09 08:42:00,
2013-08-09 04:47:00,69.5,66.7,29.83,NNE,23,0.0,0.0,91,0.00,,,0.00,WUHU216HW,2013-08-09 08:47:00,
2013-08-09 04:52:00,69.5,66.7,29.83,NNE,23,0.0,0.0,91,0.00,,,0.00,WUHU216HW,2013-08-09 08:52:00,
2013-08-09 04:57:00,69.7,66.9,29.82,NNE,23,0.0,0.0,91,0.00,,,0.00,WUHU216HW,2013-08-09 08:57:00,
2013-08-09 05:02:00,69.5,66.7,29.82,NNE,23,0.0,0.0,91,0.00,,,0.00,WUHU216HW,2013-08-09 09:02:00,
2013-08-09 05:07:00,69.7,66.9,29.82,NNE,23,0.0,0.0,91,0.00,,,0.00,WUHU216HW,2013-08-09 09:07:00,
2013-08-09 05:12:00,69.5,66.7,29.83,NNE,23,0.0,0.0,91,0.00,,,0.00,WUHU216HW,2013-08-09 09:12:00,
2013-08-09 05:17:00,69.5,66.7,29.83,NNE,23,0.0,0.0,91,0.00,,,0.00,WUHU216HW,2013-08-09 09:17:00,
2013-08-09 05:22:00,69.5,66.7,29.83,NNE,23,0.0,0.0,91,0.00,,,0.00,WUHU216HW,2013-08-09 09:22:00,
2013-08-09 05:27:00,69.5,66.7,29.83,NNE,23,0.0,0.0,91,0.00,,,0.00,WUHU216HW,2013-08-09 09:27:00,
2013-08-09 05:32:00,69.5,66.7,29.83,NNE,23,0.0,0.0,91,0.00,,,0.00,WUHU216HW,2013-08-09 09:32:00,
2013-08-09 05:37:00,69.5,66.7,29.83,NNE,23,0.0,0.0,91,0.00,,,0.00,WUHU216HW,2013-08-09 09:37:00,
2013-08-09 05:42:00,69.5,66.7,29.83,NNE,23,0.0,0.0,91,0.00,,,0.00,WUHU216HW,2013-08-09 09:42:00,
2013-08-09 05:47:00,69.5,66.7,29.83,NNE,23,0.0,0.0,91,0.00,,,0.00,WUHU216HW,2013-08-09 09:47:00,
2013-08-09 05:52:00,69.5,66.7,29.83,NNE,23,0.0,0.0,91,0.00,,,0.00,WUHU216HW,2013-08-09 09:52:00,
2013-08-09 05:57:00,69.7,66.9,29.83,SE,135,0.0,0.0,91,0.00,,,0.00,WUHU216HW,2013-08-09 09:57:00,
2013-08-09 06:02:00,69.7,66.9,29.83,SE,135,0.0,0.0,91,0.00,,,0.00,WUHU216HW,2013-08-09 10:02:00,
2013-08-09 06:07:00,69.7,66.9,29.83,SE,135,0.0,0.0,91,0.00,,,0.00,WUHU216HW,2013-08-09 10:07:00,
2013-08-09 06:12:00,69.7,66.9,29.83,SE,135,0.0,0.0,91,0.00,,,0.00,WUHU216HW,2013-08-09 10:12:00,
2013-08-09 06:17:00,69.8,67.1,29.83,SE,135,0.0,0.0,91,0.00,,,0.00,WUHU216HW,2013-08-09 10:17:00,
2013-08-09 06:22:00,70.0,67.2,29.83,SE,135,0.0,0.0,91,0.00,,,0.00,WUHU216HW,2013-08-09 10:22:00,
2013-08-09 06:27:00,70.0,67.2,29.83,SE,135,0.0,0.0,91,0.00,,,0.00,WUHU216HW,2013-08-09 10:27:00,
2013-08-09 06:32:00,69.8,67.1,29.83,SE,135,0.0,0.0,91,0.00,,,0.00,WUHU216HW,2013-08-09 10:32:00,
2013-08-09 06:37:00,69.8,66.8,29.83,SE,135,0.0,0.0,90,0.00,,,0.00,WUHU216HW,2013-08-09 10:37:00,
2013-08-09 06:42:00,69.7,66.6,29.84,SE,135,0.0,0.0,90,0.00,,,0.00,WUHU216HW,2013-08-09 10:42:00,
2013-08-09 06:47:00,69.7,66.6,29.84,SE,135,0.0,0.0,90,0.00,,,0.00,WUHU216HW,2013-08-09 10:47:00,
2013-08-09 06:52:00,69.5,66.7,29.84,SE,135,0.0,0.0,91,0.00,,,0.00,WUHU216HW,2013-08-09 10:52:00,
2013-08-09 06:57:00,69.7,66.9,29.84,SE,135,0.0,0.0,91,0.00,,,0.00,WUHU216HW,2013-08-09 10:57:00,
2013-08-09 07:02:00,69.7,66.6,29.84,SSE,158,0.0,0.0,90,0.00,,,0.00,WUHU216HW,2013-08-09 11:02:00,
2013-08-09 07:07:00,69.5,66.4,29.84,SSE,158,0.0,0.0,90,0.00,,,0.00,WUHU216HW,2013-08-09 11:07:00,
2013-08-09 07:12:00,69.5,66.7,29.84,SSE,158,0.0,0.0,91,0.00,,,0.00,WUHU216HW,2013-08-09 11:12:00,
2013-08-09 07:17:00,69.7,66.9,29.84,SSE,158,0.0,0.0,91,0.00,,,0.00,WUHU216HW,2013-08-09 11:17:00,
2013-08-09 07:22:00,69.8,67.1,29.85,SSE,158,0.0,0.0,91,0.00,,,0.00,WUHU216HW,2013-08-09 11:22:00,
2013-08-09 07:27:00,70.0,67.2,29.85,SSE,158,0.0,0.0,91,0.00,,,0.00,WUHU216HW,2013-08-09 11:27:00,
2013-08-09 07:32:00,70.2,67.4,29.85,SSW,203,0.0,1.1,91,0.00,,,0.00,WUHU216HW,2013-08-09 11:32:00,
2013-08-09 07:37:00,70.4,67.3,29.85,SSW,203,0.2,1.1,90,0.00,,,0.00,WUHU216HW,2013-08-09 11:37:00,
2013-08-09 07:42:00,70.6,67.5,29.85,SSW,203,1.1,1.1,90,0.00,,,0.00,WUHU216HW,2013-08-09 11:42:00,
2013-08-09 07:47:00,70.6,67.5,29.85,SSW,203,0.0,1.1,90,0.00,,,0.00,WUHU216HW,2013-08-09 11:47:00,
2013-08-09 07:52:00,70.9,67.9,29.85,SSW,203,0.0,1.1,90,0.00,,,0.00,WUHU216HW,2013-08-09 11:52:00,
2013-08-09 07:57:00,71.1,68.0,29.85,SSW,203,0.4,0.4,90,0.00,,,0.00,WUHU216HW,2013-08-09 11:57:00,
2013-08-09 08:02:00,71.1,68.0,29.85,SSW,203,0.0,0.7,90,0.00,,,0.00,WUHU216HW,2013-08-09 12:02:00,
2013-08-09 08:07:00,71.3,68.2,29.85,SSW,203,0.0,0.7,90,0.00,,,0.00,WUHU216HW,2013-08-09 12:07:00,
2013-08-09 08:12:00,71.5,68.4,29.85,SSW,203,0.9,0.9,90,0.00,,,0.00,WUHU216HW,2013-08-09 12:12:00,
2013-08-09 08:17:00,71.6,68.6,29.85,SSW,203,0.0,0.9,90,0.00,,,0.00,WUHU216HW,2013-08-09 12:17:00,
2013-08-09 08:22:00,72.0,68.9,29.85,SSW,203,0.0,0.9,90,0.00,,,0.00,WUHU216HW,2013-08-09 12:22:00,
2013-08-09 08:27:00,72.4,68.9,29.86,SW,225,0.0,0.0,89,0.00,,,0.00,WUHU216HW,2013-08-09 12:27:00,
2013-08-09 08:32:00,72.7,69.3,29.86,SSW,203,0.0,0.4,89,0.00,,,0.00,WUHU216HW,2013-08-09 12:32:00,
2013-08-09 08:37:00,73.1,69.7,29.86,SSW,203,0.0,0.4,89,0.00,,,0.00,WUHU216HW,2013-08-09 12:37:00,
2013-08-09 08:42:00,73.4,70.0,29.86,SSW,203,0.0,0.0,89,0.00,,,0.00,WUHU216HW,2013-08-09 12:42:00,
2013-08-09 08:47:00,73.8,70.4,29.86,SSW,203,0.0,0.0,89,0.00,,,0.00,WUHU216HW,2013-08-09 12:47:00,
2013-08-09 08:52:00,74.2,70.7,29.86,SSW,203,0.0,0.0,89,0.00,,,0.00,WUHU216HW,2013-08-09 12:52:00,
2013-08-09 08:57:00,74.2,70.4,29.86,SW,225,0.0,0.0,88,0.00,,,0.00,WUHU216HW,2013-08-09 12:57:00,
2013-08-09 09:02:00,74.3,70.6,29.87,SW,225,0.0,0.0,88,0.00,,,0.00,WUHU216HW,2013-08-09 13:02:00,
2013-08-09 09:07:00,74.5,70.7,29.86,SW,225,0.0,0.0,88,0.00,,,0.00,WUHU216HW,2013-08-09 13:07:00,
2013-08-09 09:12:00,75.1,71.3,29.86,SW,225,0.0,0.0,88,0.00,,,0.00,WUHU216HW,2013-08-09 13:12:00,
2013-08-09 09:17:00,75.4,71.4,29.87,SW,225,0.0,0.0,87,0.00,,,0.00,WUHU216HW,2013-08-09 13:17:00,
2013-08-09 09:22:00,75.6,71.2,29.87,SW,225,0.0,0.0,86,0.00,,,0.00,WUHU216HW,2013-08-09 13:22:00,
2013-08-09 09:27:00,76.0,71.5,29.87,SW,225,0.0,0.0,86,0.00,,,0.00,WUHU216HW,2013-08-09 13:27:00,
2013-08-09 09:32:00,76.3,71.8,29.87,SW,225,0.0,0.0,86,0.00,,,0.00,WUHU216HW,2013-08-09 13:32:00,
2013-08-09 09:37:00,76.7,71.8,29.86,NE,45,0.7,1.1,85,0.00,,,0.00,WUHU216HW,2013-08-09 13:37:00,
2013-08-09 09:42:00,76.7,71.8,29.87,NE,45,0.0,1.1,85,0.00,,,0.00,WUHU216HW,2013-08-09 13:42:00,
2013-08-09 09:47:00,76.7,71.8,29.87,NE,45,0.0,0.7,85,0.00,,,0.00,WUHU216HW,2013-08-09 13:47:00,
2013-08-09 09:52:00,77.0,72.2,29.87,NE,45,0.0,0.4,85,0.00,,,0.00,WUHU216HW,2013-08-09 13:52:00,
2013-08-09 09:57:00,77.0,71.8,29.87,North,0,0.2,1.8,84,0.00,,,0.00,WUHU216HW,2013-08-09 13:57:00,
2013-08-09 10:02:00,77.0,72.2,29.87,NE,45,0.0,1.8,85,0.00,,,0.00,WUHU216HW,2013-08-09 14:02:00,
2013-08-09 10:07:00,76.9,72.0,29.87,NE,45,0.4,1.6,85,0.00,,,0.00,WUHU216HW,2013-08-09 14:07:00,
2013-08-09 10:12:00,76.7,71.8,29.87,NNE,23,0.0,1.6,85,0.00,,,0.00,WUHU216HW,2013-08-09 14:12:00,
2013-08-09 10:17:00,77.0,71.8,29.87,North,0,0.0,1.6,84,0.00,,,0.00,WUHU216HW,2013-08-09 14:17:00,
2013-08-09 10:22:00,76.9,71.3,29.87,NE,45,0.2,2.9,83,0.00,,,0.00,WUHU216HW,2013-08-09 14:22:00,
2013-08-09 10:27:00,77.2,71.3,29.87,NNE,23,1.6,2.9,82,0.00,,,0.00,WUHU216HW,2013-08-09 14:27:00,
2013-08-09 10:32:00,77.2,71.3,29.87,NNE,23,0.0,1.6,82,0.00,,,0.00,WUHU216HW,2013-08-09 14:32:00,
2013-08-09 10:37:00,77.4,71.5,29.87,NE,45,0.2,1.6,82,0.00,,,0.00,WUHU216HW,2013-08-09 14:37:00,
2013-08-09 10:42:00,77.6,71.3,29.87,ENE,68,1.6,1.6,81,0.00,,,0.00,WUHU216HW,2013-08-09 14:42:00,
2013-08-09 10:47:00,77.4,71.1,29.87,NE,45,1.6,2.5,81,0.00,,,0.00,WUHU216HW,2013-08-09 14:47:00,
2013-08-09 10:52:00,77.6,71.3,29.87,NNE,23,0.0,2.5,81,0.00,,,0.00,WUHU216HW,2013-08-09 14:52:00,
2013-08-09 10:57:00,77.9,71.6,29.87,NE,45,0.9,1.6,81,0.00,,,0.00,WUHU216HW,2013-08-09 14:57:00,
2013-08-09 11:02:00,78.5,71.8,29.87,North,0,0.4,1.1,80,0.00,,,0.00,WUHU216HW,2013-08-09 15:02:00,
2013-08-09 11:07:00,78.5,71.0,29.87,NE,45,0.4,1.6,78,0.00,,,0.00,WUHU216HW,2013-08-09 15:07:00,
2013-08-09 11:12:00,78.5,71.5,29.87,NE,45,0.7,1.6,79,0.00,,,0.00,WUHU216HW,2013-08-09 15:12:00,
2013-08-09 11:17:00,78.7,71.7,29.87,SSW,203,1.6,1.8,79,0.00,,,0.00,WUHU216HW,2013-08-09 15:17:00,
2013-08-09 11:22:00,78.8,71.4,29.88,SW,225,0.7,2.2,78,0.00,,,0.00,WUHU216HW,2013-08-09 15:22:00,
2013-08-09 11:27:00,79.6,72.6,29.88,NE,45,0.0,2.2,79,0.00,,,0.00,WUHU216HW,2013-08-09 15:27:00,
2013-08-09 11:32:00,80.1,71.8,29.88,North,0,1.8,1.8,76,0.00,,,0.00,WUHU216HW,2013-08-09 15:32:00,
2013-08-09 11:37:00,79.7,71.9,29.88,NNE,23,0.7,2.5,77,0.00,,,0.00,WUHU216HW,2013-08-09 15:37:00,
2013-08-09 11:42:00,79.9,72.1,29.88,NNW,338,0.0,2.5,77,0.00,,,0.00,WUHU216HW,2013-08-09 15:42:00,
2013-08-09 11:47:00,80.1,71.8,29.88,North,0,0.4,2.5,76,0.00,,,0.00,WUHU216HW,2013-08-09 15:47:00,
2013-08-09 11:52:00,80.1,71.5,29.87,NNE,23,0.7,2.5,75,0.00,,,0.00,WUHU216HW,2013-08-09 15:52:00,
2013-08-09 11:57:00,80.3,72.5,29.87,NNW,338,0.0,1.8,77,0.00,,,0.00,WUHU216HW,2013-08-09 15:57:00,
2013-08-09 12:02:00,81.0,72.7,29.87,NE,45,0.9,2.9,76,0.00,,,0.00,WUHU216HW,2013-08-09 16:02:00,
2013-08-09 12:07:00,81.2,72.9,29.87,SW,225,0.0,2.9,76,0.00,,,0.00,WUHU216HW,2013-08-09 16:07:00,
2013-08-09 12:12:00,81.4,71.5,29.87,ENE,68,2.5,2.9,72,0.00,,,0.00,WUHU216HW,2013-08-09 16:12:00,
2013-08-09 12:17:00,80.5,71.5,29.87,NNE,23,1.1,3.1,74,0.00,,,0.00,WUHU216HW,2013-08-09 16:17:00,
2013-08-09 12:22:00,79.9,71.3,29.86,NNE,23,0.4,3.1,75,0.00,,,0.00,WUHU216HW,2013-08-09 16:22:00,
2013-08-09 12:27:00,80.3,71.6,29.86,WNW,293,0.4,2.0,75,0.00,,,0.00,WUHU216HW,2013-08-09 16:27:00,
2013-08-09 12:32:00,80.3,71.6,29.86,North,0,0.0,2.2,75,0.00,,,0.00,WUHU216HW,2013-08-09 16:32:00,
2013-08-09 12:37:00,80.1,71.1,29.86,WSW,248,0.7,2.2,74,0.00,,,0.00,WUHU216HW,2013-08-09 16:37:00,
2013-08-09 12:42:00,80.3,71.6,29.86,NE,45,0.7,1.1,75,0.00,,,0.00,WUHU216HW,2013-08-09 16:42:00,
2013-08-09 12:47:00,80.8,72.2,29.86,NE,45,0.9,1.8,75,0.00,,,0.00,WUHU216HW,2013-08-09 16:47:00,
2013-08-09 12:52:00,80.5,71.0,29.86,NE,45,0.9,3.6,73,0.00,,,0.00,WUHU216HW,2013-08-09 16:52:00,
2013-08-09 12:57:00,79.9,70.9,29.86,NNE,23,0.7,3.6,74,0.00,,,0.00,WUHU216HW,2013-08-09 16:57:00,
2013-08-09 13:02:00,79.9,71.3,29.85,NE,45,0.4,2.5,75,0.00,,,0.00,WUHU216HW,2013-08-09 17:02:00,
2013-08-09 13:07:00,80.6,72.0,29.85,NNE,23,0.2,2.5,75,0.00,,,0.00,WUHU216HW,2013-08-09 17:07:00,
2013-08-09 13:12:00,81.4,72.3,29.85,SE,135,0.7,2.5,74,0.00,,,0.00,WUHU216HW,2013-08-09 17:12:00,
2013-08-09 13:17:00,81.7,71.4,29.85,NNW,338,0.7,1.8,71,0.00,,,0.00,WUHU216HW,2013-08-09 17:17:00,
2013-08-09 13:22:00,81.7,70.6,29.85,NE,45,0.4,1.6,69,0.00,,,0.00,WUHU216HW,2013-08-09 17:22:00,
2013-08-09 13:27:00,81.7,71.0,29.85,SW,225,0.0,1.3,70,0.00,,,0.00,WUHU216HW,2013-08-09 17:27:00,
2013-08-09 13:32:00,81.7,71.4,29.85,SW,225,0.7,1.1,71,0.00,,,0.00,WUHU216HW,2013-08-09 17:32:00,
2013-08-09 13:37:00,81.7,71.8,29.85,SW,225,0.7,1.1,72,0.00,,,0.00,WUHU216HW,2013-08-09 17:37:00,
2013-08-09 13:42:00,81.4,71.5,29.85,SW,225,0.0,1.1,72,0.00,,,0.00,WUHU216HW,2013-08-09 17:42:00,
2013-08-09 13:47:00,81.5,71.6,29.85,WSW,248,0.0,0.7,72,0.00,,,0.00,WUHU216HW,2013-08-09 17:47:00,
2013-08-09 13:52:00,81.5,71.6,29.85,SSW,203,0.4,1.1,72,0.00,,,0.00,WUHU216HW,2013-08-09 17:52:00,
2013-08-09 13:57:00,81.4,71.9,29.84,SSW,203,0.4,1.1,73,0.00,,,0.00,WUHU216HW,2013-08-09 17:57:00,
2013-08-09 14:02:00,81.0,71.6,29.85,SW,225,0.7,1.3,73,0.00,,,0.00,WUHU216HW,2013-08-09 18:02:00,
2013-08-09 14:07:00,80.6,71.2,29.85,SW,225,0.7,1.3,73,0.00,,,0.00,WUHU216HW,2013-08-09 18:07:00,
2013-08-09 14:12:00,79.9,71.3,29.85,SSW,203,0.9,1.3,75,0.00,,,0.00,WUHU216HW,2013-08-09 18:12:00,
2013-08-09 14:17:00,79.6,71.3,29.85,SW,225,0.9,1.3,76,0.00,,,0.00,WUHU216HW,2013-08-09 18:17:00,
2013-08-09 14:22:00,79.6,71.7,29.86,SSW,203,0.7,1.3,77,0.00,,,0.00,WUHU216HW,2013-08-09 18:22:00,
2013-08-09 14:27:00,79.9,72.5,29.86,SW,225,0.4,1.1,78,0.01,,,0.01,WUHU216HW,2013-08-09 18:27:00,
2013-08-09 14:32:00,81.0,73.5,29.86,SW,225,0.0,1.3,78,0.01,,,0.01,WUHU216HW,2013-08-09 18:32:00,
2013-08-09 14:37:00,82.1,75.0,29.86,SW,225,0.4,1.3,79,0.01,,,0.01,WUHU216HW,2013-08-09 18:37:00,
2013-08-09 14:42:00,83.3,75.8,29.86,NNW,338,0.0,1.1,78,0.01,,,0.01,WUHU216HW,2013-08-09 18:42:00,
2013-08-09 14:47:00,84.2,75.8,29.85,SSW,203,0.4,1.3,76,0.01,,,0.01,WUHU216HW,2013-08-09 18:47:00,
2013-08-09 14:52:00,83.2,73.6,29.85,WSW,248,0.9,1.8,73,0.01,,,0.01,WUHU216HW,2013-08-09 18:52:00,
2013-08-09 14:57:00,82.3,73.5,29.85,SW,225,0.0,1.8,75,0.01,,,0.01,WUHU216HW,2013-08-09 18:57:00,
2013-08-09 15:02:00,81.7,73.5,29.85,North,0,0.4,1.6,76,0.01,,,0.01,WUHU216HW,2013-08-09 19:02:00,
2013-08-09 15:07:00,81.0,71.9,29.85,North,0,1.1,2.0,74,0.02,,,0.02,WUHU216HW,2013-08-09 19:07:00,
2013-08-09 15:12:00,79.7,71.1,29.85,SE,135,0.4,2.0,75,0.07,,,0.07,WUHU216HW,2013-08-09 19:12:00,
2013-08-09 15:18:00,79.0,70.7,29.84,NNE,23,0.2,2.5,76,0.08,,,0.08,WUHU216HW,2013-08-09 19:18:00,
2013-08-09 15:20:00,78.8,70.6,29.84,North,0,0.2,2.5,76,0.07,,,0.08,WUHU216HW,2013-08-09 19:20:00,
2013-08-09 15:21:00,78.5,70.7,29.85,ENE,68,1.1,2.5,77,0.07,,,0.08,WUHU216HW,2013-08-09 19:21:00,
2013-08-09 15:23:00,78.5,70.7,29.84,NE,45,0.4,2.5,77,0.07,,,0.08,WUHU216HW,2013-08-09 19:23:00,
2013-08-09 15:24:00,78.5,70.7,29.84,NNW,338,0.2,2.5,77,0.07,,,0.08,WUHU216HW,2013-08-09 19:24:00,
2013-08-09 15:26:00,78.5,70.3,29.84,ENE,68,1.8,2.5,76,0.07,,,0.08,WUHU216HW,2013-08-09 19:26:00,
2013-08-09 15:36:00,78.7,71.7,29.85,NE,45,0.4,1.8,79,0.07,,,0.08,WUHU216HW,2013-08-09 19:36:00,
2013-08-09 15:41:00,79.4,71.9,29.84,NNW,338,0.2,1.1,78,0.07,,,0.08,WUHU216HW,2013-08-09 19:41:00,
2013-08-09 15:53:00,79.6,71.7,29.84,NNW,338,0.0,1.1,77,0.07,,,0.08,WUHU216HW,2013-08-09 19:53:00,
2013-08-09 15:58:00,82.3,73.5,29.83,South,180,1.3,2.0,75,0.07,,,0.08,WUHU216HW,2013-08-09 19:58:00,
2013-08-09 16:03:00,82.3,72.3,29.83,North,0,0.2,2.0,72,0.07,,,0.08,WUHU216HW,2013-08-09 20:03:00,
2013-08-09 16:08:00,81.9,72.0,29.83,NNE,23,0.2,2.0,72,0.01,,,0.08,WUHU216HW,2013-08-09 20:08:00,
2013-08-09 16:13:00,81.7,71.8,29.83,NNE,23,0.7,1.8,72,0.00,,,0.08,WUHU216HW,2013-08-09 20:13:00,
2013-08-09 16:18:00,81.2,71.7,29.83,NNE,23,0.2,1.6,73,0.00,,,0.08,WUHU216HW,2013-08-09 20:18:00,
2013-08-09 16:23:00,80.8,71.4,29.83,NNE,23,0.0,0.7,73,0.00,,,0.08,WUHU216HW,2013-08-09 20:23:00,
2013-08-09 16:28:00,80.5,71.5,29.83,NE,45,0.4,0.7,74,0.00,,,0.08,WUHU216HW,2013-08-09 20:28:00,
2013-08-09 16:33:00,80.3,71.6,29.83,NE,45,0.0,0.7,75,0.00,,,0.08,WUHU216HW,2013-08-09 20:33:00,
2013-08-09 16:38:00,80.5,72.2,29.83,NE,45,0.0,0.2,76,0.00,,,0.08,WUHU216HW,2013-08-09 20:38:00,
2013-08-09 16:43:00,81.4,73.5,29.83,North,0,0.0,0.4,77,0.00,,,0.08,WUHU216HW,2013-08-09 20:43:00,
2013-08-09 16:48:00,82.6,74.7,29.83,NNW,338,0.0,0.4,77,0.00,,,0.08,WUHU216HW,2013-08-09 20:48:00,
2013-08-09 16:53:00,83.9,75.5,29.83,SW,225,1.1,1.1,76,0.00,,,0.08,WUHU216HW,2013-08-09 20:53:00,
2013-08-09 16:58:00,84.2,75.1,29.83,SW,225,0.7,1.1,74,0.00,,,0.08,WUHU216HW,2013-08-09 20:58:00,
2013-08-09 17:03:00,84.6,75.4,29.83,SW,225,0.0,1.1,74,0.00,,,0.08,WUHU216HW,2013-08-09 21:03:00,
2013-08-09 17:08:00,84.8,75.2,29.83,SW,225,1.1,1.8,73,0.00,,,0.08,WUHU216HW,2013-08-09 21:08:00,
2013-08-09 17:13:00,84.6,74.6,29.83,WSW,248,0.0,1.8,72,0.00,,,0.08,WUHU216HW,2013-08-09 21:13:00,
2013-08-09 17:18:00,85.1,75.2,29.84,SSE,158,1.8,2.2,72,0.00,,,0.08,WUHU216HW,2013-08-09 21:18:00,
2013-08-09 17:23:00,85.9,75.9,29.83,WSW,248,0.4,2.2,72,0.00,,,0.08,WUHU216HW,2013-08-09 21:23:00,
2013-08-09 17:28:00,85.5,74.7,29.83,SSW,203,0.0,1.8,70,0.00,,,0.08,WUHU216HW,2013-08-09 21:28:00,
2013-08-09 17:33:00,85.0,74.5,29.83,SW,225,0.4,1.6,71,0.00,,,0.08,WUHU216HW,2013-08-09 21:33:00,
2013-08-09 17:38:00,85.5,75.1,29.83,SSW,203,0.0,1.1,71,0.00,,,0.08,WUHU216HW,2013-08-09 21:38:00,
2013-08-09 17:43:00,87.7,76.2,29.83,SW,225,0.0,2.0,69,0.00,,,0.08,WUHU216HW,2013-08-09 21:43:00,
2013-08-09 17:48:00,88.2,75.9,29.83,SW,225,0.0,2.0,67,0.00,,,0.08,WUHU216HW,2013-08-09 21:48:00,
2013-08-09 17:53:00,87.5,74.7,29.83,SSW,203,0.0,1.8,66,0.00,,,0.08,WUHU216HW,2013-08-09 21:53:00,
2013-08-09 17:58:00,87.7,74.4,29.83,SSW,203,0.0,1.3,65,0.00,,,0.08,WUHU216HW,2013-08-09 21:58:00,
2013-08-09 18:03:00,86.2,73.5,29.83,SSW,203,0.7,1.1,66,0.00,,,0.08,WUHU216HW,2013-08-09 22:03:00,
2013-08-09 18:08:00,84.8,72.6,29.83,SSW,203,1.1,1.1,67,0.00,,,0.08,WUHU216HW,2013-08-09 22:08:00,
2013-08-09 18:13:00,83.7,72.0,29.83,SSW,203,0.7,1.1,68,0.00,,,0.08,WUHU216HW,2013-08-09 22:13:00,
2013-08-09 18:18:00,82.8,71.6,29.82,SSW,203,0.4,1.1,69,0.00,,,0.08,WUHU216HW,2013-08-09 22:18:00,
2013-08-09 18:23:00,81.7,71.0,29.82,SSW,203,0.4,1.1,70,0.00,,,0.08,WUHU216HW,2013-08-09 22:23:00,
2013-08-09 18:28:00,81.0,70.7,29.82,SSW,203,0.7,1.6,71,0.00,,,0.08,WUHU216HW,2013-08-09 22:28:00,
2013-08-09 18:33:00,80.6,70.8,29.82,SSW,203,0.0,1.6,72,0.00,,,0.08,WUHU216HW,2013-08-09 22:33:00,
2013-08-09 18:38:00,81.5,71.6,29.83,SSW,203,0.4,1.1,72,0.00,,,0.08,WUHU216HW,2013-08-09 22:38:00,
2013-08-09 18:43:00,83.3,73.4,29.83,SSW,203,0.0,1.1,72,0.00,,,0.08,WUHU216HW,2013-08-09 22:43:00,
2013-08-09 18:48:00,83.9,73.1,29.83,SSW,203,0.0,0.7,70,0.00,,,0.08,WUHU216HW,2013-08-09 22:48:00,
2013-08-09 18:53:00,84.2,73.4,29.83,SSW,203,0.4,0.7,70,0.00,,,0.08,WUHU216HW,2013-08-09 22:53:00,
2013-08-09 18:58:00,85.0,73.7,29.83,SSW,203,0.4,0.7,69,0.00,,,0.08,WUHU216HW,2013-08-09 22:58:00,
2013-08-09 19:03:00,87.5,75.2,29.83,SSW,203,1.1,1.1,67,0.00,,,0.08,WUHU216HW,2013-08-09 23:03:00,
2013-08-09 19:08:00,88.9,75.2,29.83,SSW,203,0.2,1.1,64,0.00,,,0.08,WUHU216HW,2013-08-09 23:08:00,
2013-08-09 19:13:00,90.2,75.0,29.83,SW,225,0.0,1.1,61,0.00,,,0.08,WUHU216HW,2013-08-09 23:13:00,
2013-08-09 19:18:00,89.5,74.3,29.83,SW,225,0.0,0.4,61,0.00,,,0.08,WUHU216HW,2013-08-09 23:18:00,
2013-08-09 19:23:00,87.5,72.9,29.83,SSW,203,0.9,1.1,62,0.00,,,0.08,WUHU216HW,2013-08-09 23:23:00,
2013-08-09 19:28:00,86.4,72.3,29.83,South,180,0.0,1.1,63,0.00,,,0.08,WUHU216HW,2013-08-09 23:28:00,
2013-08-09 19:33:00,85.7,72.1,29.83,South,180,0.7,1.1,64,0.00,,,0.08,WUHU216HW,2013-08-09 23:33:00,
2013-08-09 19:38:00,84.8,72.2,29.83,South,180,0.0,1.1,66,0.00,,,0.08,WUHU216HW,2013-08-09 23:38:00,
2013-08-09 19:43:00,83.9,71.7,29.83,SSW,203,0.4,1.1,67,0.00,,,0.08,WUHU216HW,2013-08-09 23:43:00,
2013-08-09 19:48:00,82.8,71.1,29.84,SSW,203,0.0,1.1,68,0.00,,,0.08,WUHU216HW,2013-08-09 23:48:00,
2013-08-09 19:53:00,81.7,70.1,29.83,SSW,203,0.4,1.1,68,0.00,,,0.08,WUHU216HW,2013-08-09 23:53:00,
2013-08-09 19:58:00,80.5,69.8,29.84,SW,225,0.0,0.9,70,0.00,,,0.08,WUHU216HW,2013-08-09 23:58:00,
2013-08-09 20:03:00,79.6,69.3,29.84,SW,225,0.4,0.9,71,0.00,,,0.08,WUHU216HW,2013-08-10 00:03:00,
2013-08-09 20:08:00,78.8,69.4,29.84,SW,225,0.0,0.9,73,0.00,,,0.08,WUHU216HW,2013-08-10 00:08:00,
2013-08-09 20:13:00,78.1,69.5,29.83,SW,225,0.0,0.7,75,0.00,,,0.08,WUHU216HW,2013-08-10 00:13:00,
2013-08-09 20:18:00,77.6,69.0,29.84,SSW,203,0.9,1.1,75,0.00,,,0.08,WUHU216HW,2013-08-10 00:18:00,
2013-08-09 20:23:00,77.0,69.2,29.84,SSW,203,0.7,1.1,77,0.00,,,0.08,WUHU216HW,2013-08-10 00:23:00,
2013-08-09 20:28:00,76.3,68.9,29.84,SSW,203,0.4,1.1,78,0.00,,,0.08,WUHU216HW,2013-08-10 00:28:00,
2013-08-09 20:33:00,76.0,69.0,29.84,SSW,203,0.0,1.1,79,0.00,,,0.08,WUHU216HW,2013-08-10 00:33:00,
2013-08-09 20:38:00,75.6,69.1,29.84,SSW,203,0.0,0.7,80,0.00,,,0.08,WUHU216HW,2013-08-10 00:38:00,
2013-08-09 20:43:00,75.2,68.8,29.84,SSW,203,0.0,0.7,80,0.00,,,0.08,WUHU216HW,2013-08-10 00:43:00,
2013-08-09 20:48:00,75.1,69.0,29.84,SSW,203,0.4,0.9,81,0.00,,,0.08,WUHU216HW,2013-08-10 00:48:00,
2013-08-09 20:53:00,74.9,68.8,29.85,SW,225,0.0,1.1,81,0.00,,,0.08,WUHU216HW,2013-08-10 00:53:00,
2013-08-09 20:58:00,74.7,68.6,29.86,SSW,203,0.2,1.1,81,0.00,,,0.08,WUHU216HW,2013-08-10 00:58:00,
2013-08-09 21:03:00,74.5,68.8,29.86,SSW,203,0.0,0.9,82,0.00,,,0.08,WUHU216HW,2013-08-10 01:03:00,
2013-08-09 21:08:00,74.5,68.8,29.86,SW,225,0.4,0.9,82,0.00,,,0.08,WUHU216HW,2013-08-10 01:08:00,
2013-08-09 21:13:00,74.5,69.0,29.86,SW,225,0.4,0.9,83,0.00,,,0.08,WUHU216HW,2013-08-10 01:13:00,
2013-08-09 21:18:00,74.3,68.9,29.86,SW,225,0.0,0.7,83,0.00,,,0.08,WUHU216HW,2013-08-10 01:18:00,
2013-08-09 21:23:00,74.0,68.5,29.86,SW,225,0.0,0.7,83,0.00,,,0.08,WUHU216HW,2013-08-10 01:23:00,
2013-08-09 21:28:00,73.8,68.3,29.86,SW,225,1.1,1.1,83,0.00,,,0.08,WUHU216HW,2013-08-10 01:28:00,
2013-08-09 21:33:00,73.6,68.5,29.87,SW,225,0.0,1.1,84,0.00,,,0.08,WUHU216HW,2013-08-10 01:33:00,
2013-08-09 21:38:00,73.4,68.3,29.87,SW,225,0.2,1.1,84,0.00,,,0.08,WUHU216HW,2013-08-10 01:38:00,
2013-08-09 21:43:00,73.4,68.7,29.88,SW,225,0.0,0.4,85,0.00,,,0.08,WUHU216HW,2013-08-10 01:43:00,
2013-08-09 21:48:00,73.3,68.5,29.87,SW,225,0.0,0.2,85,0.00,,,0.08,WUHU216HW,2013-08-10 01:48:00,
2013-08-09 21:53:00,73.1,68.3,29.87,SW,225,0.0,0.7,85,0.00,,,0.08,WUHU216HW,2013-08-10 01:53:00,
2013-08-09 21:58:00,73.3,68.5,29.87,SW,225,0.4,0.7,85,0.00,,,0.08,WUHU216HW,2013-08-10 01:58:00,
2013-08-09 22:03:00,73.1,68.3,29.87,SW,225,0.0,0.4,85,0.00,,,0.08,WUHU216HW,2013-08-10 02:03:00,
2013-08-09 22:08:00,73.3,68.5,29.88,SW,225,0.0,0.4,85,0.00,,,0.08,WUHU216HW,2013-08-10 02:08:00,
2013-08-09 22:13:00,73.1,68.3,29.88,SW,225,0.7,0.9,85,0.00,,,0.08,WUHU216HW,2013-08-10 02:13:00,
2013-08-09 22:18:00,73.1,68.3,29.88,SW,225,0.0,0.9,85,0.00,,,0.08,WUHU216HW,2013-08-10 02:18:00,
2013-08-09 22:23:00,72.9,67.8,29.89,SW,225,0.0,0.7,84,0.00,,,0.08,WUHU216HW,2013-08-10 02:23:00,
2013-08-09 22:28:00,72.7,67.6,29.89,SW,225,0.4,0.4,84,0.00,,,0.08,WUHU216HW,2013-08-10 02:28:00,
2013-08-09 22:33:00,72.5,67.4,29.89,SW,225,0.0,0.4,84,0.00,,,0.08,WUHU216HW,2013-08-10 02:33:00,
2013-08-09 22:38:00,72.5,67.8,29.89,SW,225,0.0,0.4,85,0.00,,,0.08,WUHU216HW,2013-08-10 02:38:00,
2013-08-09 22:43:00,72.7,68.0,29.89,SW,225,0.4,0.4,85,0.00,,,0.08,WUHU216HW,2013-08-10 02:43:00,
2013-08-09 22:48:00,72.7,68.0,29.89,SW,225,0.0,0.4,85,0.00,,,0.08,WUHU216HW,2013-08-10 02:48:00,
2013-08-09 22:53:00,72.7,68.0,29.89,SW,225,0.2,0.7,85,0.00,,,0.08,WUHU216HW,2013-08-10 02:53:00,
2013-08-09 22:58:00,72.7,68.0,29.89,SW,225,0.0,0.7,85,0.00,,,0.08,WUHU216HW,2013-08-10 02:58:00,
2013-08-09 23:03:00,72.7,68.0,29.89,SW,225,0.0,0.2,85,0.00,,,0.08,WUHU216HW,2013-08-10 03:03:00,
2013-08-09 23:08:00,72.4,67.6,29.89,SW,225,0.0,0.2,85,0.00,,,0.08,WUHU216HW,2013-08-10 03:08:00,
2013-08-09 23:13:00,72.4,67.6,29.89,SW,225,0.0,0.0,85,0.00,,,0.08,WUHU216HW,2013-08-10 03:13:00,
2013-08-09 23:18:00,72.2,67.4,29.89,SW,225,0.0,0.0,85,0.00,,,0.08,WUHU216HW,2013-08-10 03:18:00,
2013-08-09 23:23:00,72.0,67.6,29.89,SW,225,0.0,0.0,86,0.00,,,0.08,WUHU216HW,2013-08-10 03:23:00,
2013-08-09 23:28:00,72.0,67.6,29.89,SW,225,0.0,0.0,86,0.00,,,0.08,WUHU216HW,2013-08-10 03:28:00,
2013-08-09 23:33:00,71.8,67.4,29.89,SW,225,0.0,0.0,86,0.00,,,0.08,WUHU216HW,2013-08-10 03:33:00,
2013-08-09 23:38:00,71.8,67.4,29.89,SW,225,0.0,0.0,86,0.00,,,0.08,WUHU216HW,2013-08-10 03:38:00,
2013-08-09 23:43:00,72.0,67.6,29.89,SW,225,0.0,0.2,86,0.00,,,0.08,WUHU216HW,2013-08-10 03:43:00,
2013-08-09 23:48:00,72.0,67.6,29.89,SW,225,0.0,0.7,86,0.00,,,0.08,WUHU216HW,2013-08-10 03:48:00,
2013-08-09 23:53:00,72.2,67.8,29.89,SW,225,0.0,0.7,86,0.00,,,0.08,WUHU216HW,2013-08-10 03:53:00,
2013-08-09 23:58:00,72.0,67.6,29.89,SW,225,0.0,0.4,86,0.00,,,0.08,WUHU216HW,2013-08-10 03:58:00,